AAL1825 KSFO-KLAX

Flight info

Callsign AAL1825
Flight time 1h 2m
Altitude 33000
Route WESLA5 SUSEY DCT EBAYE DCT BURGL IRNMN2
Aircraft E275/M-SDE3GILORVW/S

Departure

Time 2026-04-20 03:02
Airport San Francisco International Airport (KSFO)

Arrival

Time 2026-04-20 04:05
Airport Los Angeles International Airport (KLAX)
Time Latitude Longitude Altitude Speed Heading
2026-04-20 02:11 37.61483 -122.38181 12 ft 0 kts 299°
2026-04-20 02:40 37.61482 -122.38179 12 ft 3 kts 299°
2026-04-20 02:40 37.61468 -122.38151 12 ft 4 kts 307°
2026-04-20 02:40 37.61454 -122.38130 13 ft 0 kts 314°
2026-04-20 02:48 37.61455 -122.38131 13 ft 1 kts 312°
2026-04-20 02:49 37.61460 -122.38138 12 ft 1 kts 337°
2026-04-20 02:49 37.61470 -122.38137 12 ft 1 kts 29°
2026-04-20 02:49 37.61485 -122.38123 12 ft 5 kts 36°
2026-04-20 02:49 37.61507 -122.38090 14 ft 5 kts 44°
2026-04-20 02:50 37.61546 -122.38059 12 ft 9 kts 36°
2026-04-20 02:50 37.61605 -122.38007 13 ft 12 kts 32°
2026-04-20 02:50 37.61647 -122.37979 14 ft 0 kts 27°
2026-04-20 02:50 37.61685 -122.37955 17 ft 10 kts 26°
2026-04-20 02:51 37.61738 -122.37897 15 ft 1 kts 75°
2026-04-20 02:51 37.61730 -122.37878 15 ft 8 kts 138°
2026-04-20 02:51 37.61653 -122.37885 15 ft 15 kts 200°
2026-04-20 02:51 37.61540 -122.37953 13 ft 20 kts 207°
2026-04-20 02:52 37.61407 -122.38043 14 ft 22 kts 207°
2026-04-20 02:52 37.61275 -122.38130 12 ft 15 kts 207°
2026-04-20 02:52 37.61240 -122.38153 14 ft 8 kts 207°
2026-04-20 02:52 37.61170 -122.38200 17 ft 13 kts 208°
2026-04-20 02:53 37.61099 -122.38261 16 ft 7 kts 249°
2026-04-20 02:53 37.61121 -122.38305 16 ft 10 kts 338°
2026-04-20 02:53 37.61221 -122.38260 15 ft 22 kts 27°
2026-04-20 02:53 37.61373 -122.38161 13 ft 20 kts 29°
2026-04-20 02:54 37.61438 -122.38117 13 ft 13 kts 27°
2026-04-20 02:54 37.61538 -122.38051 12 ft 19 kts 27°
2026-04-20 02:54 37.61632 -122.37985 14 ft 0 kts 27°
2026-04-20 02:54 37.61636 -122.37983 13 ft 2 kts 27°
2026-04-20 02:55 37.61652 -122.37973 14 ft 3 kts 27°
2026-04-20 02:55 37.61678 -122.37956 14 ft 5 kts 27°
2026-04-20 02:55 37.61721 -122.37919 15 ft 12 kts 39°
2026-04-20 02:55 37.61791 -122.37834 15 ft 15 kts 58°
2026-04-20 02:56 37.61784 -122.37715 16 ft 15 kts 110°
2026-04-20 02:56 37.61740 -122.37576 17 ft 20 kts 113°
2026-04-20 02:56 37.61677 -122.37403 19 ft 23 kts 120°
2026-04-20 02:56 37.61596 -122.37218 22 ft 25 kts 117°
2026-04-20 02:57 37.61510 -122.37012 21 ft 22 kts 117°
2026-04-20 02:57 37.61452 -122.36910 20 ft 16 kts 130°
2026-04-20 02:57 37.61372 -122.36786 17 ft 20 kts 124°
2026-04-20 02:57 37.61303 -122.36627 18 ft 22 kts 118°
2026-04-20 02:58 37.61237 -122.36471 15 ft 21 kts 118°
2026-04-20 02:58 37.61176 -122.36324 18 ft 11 kts 118°
2026-04-20 02:58 37.61140 -122.36238 17 ft 15 kts 117°
2026-04-20 02:58 37.61088 -122.36112 21 ft 17 kts 118°
2026-04-20 02:59 37.61058 -122.36027 20 ft 0 kts 104°
2026-04-20 02:59 37.61054 -122.36005 20 ft 6 kts 103°
2026-04-20 02:59 37.61061 -122.35950 23 ft 8 kts 63°
2026-04-20 02:59 37.61113 -122.35899 21 ft 11 kts 23°
2026-04-20 03:00 37.61191 -122.35902 22 ft 11 kts 315°
2026-04-20 03:00 37.61213 -122.35946 19 ft 0 kts 294°
2026-04-20 03:02 37.61250 -122.36035 18 ft 49 kts 298°
2026-04-20 03:02 37.61575 -122.36798 37 ft 143 kts 297°
2026-04-20 03:02 37.62109 -122.38047 770 ft 172 kts 293°
2026-04-20 03:03 37.62650 -122.39404 2110 ft 173 kts 294°
2026-04-20 03:03 37.63264 -122.40754 3311 ft 189 kts 294°
2026-04-20 03:03 37.64050 -122.42285 4086 ft 223 kts 297°
2026-04-20 03:03 37.64859 -122.43984 5424 ft 218 kts 290°
2026-04-20 03:04 37.65490 -122.45594 6994 ft 198 kts 289°
2026-04-20 03:04 37.66091 -122.47112 8271 ft 193 kts 289°
2026-04-20 03:04 37.66674 -122.48734 8986 ft 217 kts 281°
2026-04-20 03:04 37.66884 -122.50805 9102 ft 265 kts 258°
2026-04-20 03:05 37.66098 -122.53075 9384 ft 305 kts 226°
2026-04-20 03:05 37.64327 -122.54582 10628 ft 310 kts 197°
2026-04-20 03:05 37.62266 -122.54597 12812 ft 289 kts 166°
2026-04-20 03:05 37.60543 -122.53717 15361 ft 247 kts 161°
2026-04-20 03:06 37.59493 -122.53137 16591 ft 243 kts 162°
2026-04-20 03:06 37.58002 -122.52304 17227 ft 236 kts 160°
2026-04-20 03:06 37.56523 -122.51382 18215 ft 235 kts 159°
2026-04-20 03:06 37.55154 -122.50437 19434 ft 218 kts 158°
2026-04-20 03:07 37.53904 -122.49553 20792 ft 193 kts 160°
2026-04-20 03:07 37.52851 -122.48751 21582 ft 176 kts 159°
2026-04-20 03:07 37.51704 -122.48064 21825 ft 189 kts 172°
2026-04-20 03:07 37.50402 -122.47742 22330 ft 193 kts 179°
2026-04-20 03:08 37.49058 -122.47489 22940 ft 199 kts 173°
2026-04-20 03:08 37.47777 -122.46893 23769 ft 195 kts 162°
2026-04-20 03:08 37.46649 -122.45837 24267 ft 211 kts 143°
2026-04-20 03:08 37.45721 -122.44346 24723 ft 221 kts 136°
2026-04-20 03:09 37.44949 -122.42673 25152 ft 211 kts 130°
2026-04-20 03:09 37.44315 -122.40982 25008 ft 225 kts 128°
2026-04-20 03:09 37.43559 -122.39102 24872 ft 256 kts 128°
2026-04-20 03:09 37.42731 -122.37093 25341 ft 262 kts 128°
2026-04-20 03:10 37.41898 -122.35025 25903 ft 267 kts 126°
2026-04-20 03:10 37.41050 -122.32897 26079 ft 282 kts 135°
2026-04-20 03:10 37.39605 -122.31076 25690 ft 309 kts 150°
2026-04-20 03:10 37.37799 -122.29336 25450 ft 344 kts 150°
2026-04-20 03:11 37.35877 -122.27475 25985 ft 348 kts 149°
2026-04-20 03:11 37.34009 -122.25642 26585 ft 339 kts 149°
2026-04-20 03:11 37.32245 -122.23865 27297 ft 313 kts 149°
2026-04-20 03:11 37.30555 -122.22121 27749 ft 317 kts 149°
2026-04-20 03:12 37.28880 -122.20295 28450 ft 319 kts 146°
2026-04-20 03:12 37.27244 -122.18383 29008 ft 327 kts 144°
2026-04-20 03:12 37.25581 -122.16286 28994 ft 351 kts 142°
2026-04-20 03:12 37.23807 -122.14058 29022 ft 370 kts 143°
2026-04-20 03:13 37.22019 -122.11673 29452 ft 381 kts 137°
2026-04-20 03:13 37.20331 -122.09056 29810 ft 391 kts 135°
2026-04-20 03:13 37.18547 -122.06383 29772 ft 408 kts 138°
2026-04-20 03:14 37.14635 -122.01045 29343 ft 419 kts 139°
2026-04-20 03:14 37.10631 -121.95672 29039 ft 422 kts 139°
2026-04-20 03:15 37.06652 -121.90323 29175 ft 422 kts 139°
2026-04-20 03:15 37.04637 -121.87626 29331 ft 425 kts 139°
2026-04-20 03:15 37.02614 -121.84919 29492 ft 427 kts 139°
2026-04-20 03:15 37.00575 -121.82191 29718 ft 430 kts 139°
2026-04-20 03:16 36.98532 -121.79458 29956 ft 432 kts 139°
2026-04-20 03:16 36.96471 -121.76703 30174 ft 434 kts 139°
2026-04-20 03:16 36.94402 -121.73939 30325 ft 437 kts 139°
2026-04-20 03:17 36.90238 -121.68383 30356 ft 437 kts 139°
2026-04-20 03:17 36.86083 -121.62847 30359 ft 437 kts 139°
2026-04-20 03:18 36.81949 -121.57351 30369 ft 437 kts 139°
2026-04-20 03:18 36.77781 -121.51816 30335 ft 437 kts 139°
2026-04-20 03:19 36.73611 -121.46290 30331 ft 438 kts 139°
2026-04-20 03:19 36.69433 -121.40765 30335 ft 438 kts 139°
2026-04-20 03:20 36.65253 -121.35243 30331 ft 438 kts 139°
2026-04-20 03:20 36.61072 -121.29732 30519 ft 439 kts 139°
2026-04-20 03:20 36.58971 -121.26966 30621 ft 440 kts 139°
2026-04-20 03:21 36.56863 -121.24193 30711 ft 442 kts 139°
2026-04-20 03:21 36.52634 -121.18636 30892 ft 443 kts 139°
2026-04-20 03:22 36.48391 -121.13070 31089 ft 445 kts 139°
2026-04-20 03:22 36.44122 -121.07480 31287 ft 446 kts 138°
2026-04-20 03:23 36.39981 -121.01694 31471 ft 450 kts 135°
2026-04-20 03:23 36.37945 -120.98745 31575 ft 451 kts 135°
2026-04-20 03:23 36.35900 -120.95792 31679 ft 451 kts 135°
2026-04-20 03:23 36.33845 -120.92835 31787 ft 453 kts 135°
2026-04-20 03:24 36.31783 -120.89878 31893 ft 454 kts 135°
2026-04-20 03:24 36.29711 -120.86910 32007 ft 455 kts 135°
2026-04-20 03:24 36.27637 -120.83942 32110 ft 456 kts 135°
2026-04-20 03:24 36.25558 -120.80972 32223 ft 457 kts 135°
2026-04-20 03:25 36.23472 -120.77995 32332 ft 457 kts 135°
2026-04-20 03:25 36.21395 -120.75025 32521 ft 456 kts 135°
2026-04-20 03:25 36.19318 -120.72051 32808 ft 457 kts 135°
2026-04-20 03:25 36.17236 -120.69082 32997 ft 460 kts 135°
2026-04-20 03:26 36.15116 -120.66066 33051 ft 468 kts 135°
2026-04-20 03:26 36.10779 -120.59905 33070 ft 480 kts 135°
2026-04-20 03:27 36.06387 -120.53668 33016 ft 481 kts 135°
2026-04-20 03:27 36.01991 -120.47442 33028 ft 480 kts 135°
2026-04-20 03:28 35.97589 -120.41221 33030 ft 481 kts 135°
2026-04-20 03:28 35.90980 -120.31901 33017 ft 481 kts 135°
2026-04-20 03:29 35.86474 -120.25812 33011 ft 476 kts 144°
2026-04-20 03:29 35.80975 -120.21395 33017 ft 470 kts 154°
2026-04-20 03:30 35.75333 -120.17303 33008 ft 472 kts 153°
2026-04-20 03:30 35.69724 -120.13087 33015 ft 473 kts 153°
2026-04-20 03:31 35.64125 -120.08858 33004 ft 472 kts 152°
2026-04-20 03:31 35.58519 -120.04633 33008 ft 473 kts 152°
2026-04-20 03:32 35.52913 -120.00412 33008 ft 473 kts 152°
2026-04-20 03:32 35.47292 -119.96189 33002 ft 474 kts 152°
2026-04-20 03:33 35.41671 -119.91971 33000 ft 474 kts 152°
2026-04-20 03:33 35.36071 -119.87777 32999 ft 475 kts 152°
2026-04-20 03:34 35.30439 -119.83566 33003 ft 475 kts 152°
2026-04-20 03:34 35.25007 -119.78899 32995 ft 479 kts 145°
2026-04-20 03:35 35.19756 -119.73895 32991 ft 479 kts 146°
2026-04-20 03:35 35.14439 -119.68904 32990 ft 479 kts 146°
2026-04-20 03:36 35.09144 -119.63969 32982 ft 476 kts 146°
2026-04-20 03:36 35.06603 -119.61599 32935 ft 455 kts 146°
2026-04-20 03:36 35.04149 -119.59310 32911 ft 434 kts 146°
2026-04-20 03:37 35.01802 -119.57124 32931 ft 417 kts 146°
2026-04-20 03:37 34.99495 -119.54982 32967 ft 419 kts 146°
2026-04-20 03:37 34.94792 -119.50629 32747 ft 431 kts 146°
2026-04-20 03:38 34.92353 -119.48376 31457 ft 443 kts 146°
2026-04-20 03:38 34.89897 -119.46117 30195 ft 443 kts 146°
2026-04-20 03:38 34.87476 -119.43952 29941 ft 418 kts 146°
2026-04-20 03:38 34.85165 -119.41892 29770 ft 413 kts 147°
2026-04-20 03:39 34.82821 -119.39807 29373 ft 423 kts 146°
2026-04-20 03:39 34.80417 -119.37667 28145 ft 431 kts 146°
2026-04-20 03:39 34.78002 -119.35510 26881 ft 429 kts 146°
2026-04-20 03:39 34.75632 -119.33391 26375 ft 410 kts 146°
2026-04-20 03:40 34.73350 -119.31358 25891 ft 406 kts 147°
2026-04-20 03:40 34.71051 -119.29353 25432 ft 408 kts 147°
2026-04-20 03:40 34.68747 -119.27349 24850 ft 406 kts 147°
2026-04-20 03:40 34.66459 -119.25356 24323 ft 402 kts 147°
2026-04-20 03:41 34.64204 -119.23388 23866 ft 398 kts 147°
2026-04-20 03:41 34.61950 -119.21441 23291 ft 395 kts 147°
2026-04-20 03:41 34.59743 -119.19541 22902 ft 379 kts 147°
2026-04-20 03:41 34.57643 -119.17731 22484 ft 362 kts 147°
2026-04-20 03:42 34.55626 -119.15994 22024 ft 351 kts 147°
2026-04-20 03:42 34.53664 -119.14264 21618 ft 346 kts 146°
2026-04-20 03:42 34.51723 -119.12535 21113 ft 346 kts 146°
2026-04-20 03:42 34.49793 -119.10821 20691 ft 342 kts 146°
2026-04-20 03:43 34.47878 -119.09126 20208 ft 340 kts 146°
2026-04-20 03:43 34.45978 -119.07444 19783 ft 336 kts 146°
2026-04-20 03:43 34.44098 -119.05783 19311 ft 333 kts 146°
2026-04-20 03:43 34.42234 -119.04153 18906 ft 329 kts 147°
2026-04-20 03:44 34.40372 -119.02546 18436 ft 327 kts 147°
2026-04-20 03:44 34.38527 -119.00955 17926 ft 324 kts 147°
2026-04-20 03:44 34.36713 -118.99386 17527 ft 318 kts 147°
2026-04-20 03:44 34.34915 -118.97832 17125 ft 316 kts 147°
2026-04-20 03:45 34.33153 -118.96255 16743 ft 315 kts 146°
2026-04-20 03:45 34.31401 -118.94669 16349 ft 313 kts 146°
2026-04-20 03:45 34.29667 -118.93098 15992 ft 311 kts 146°
2026-04-20 03:45 34.27947 -118.91537 15631 ft 308 kts 145°
2026-04-20 03:46 34.26233 -118.89983 15248 ft 306 kts 145°
2026-04-20 03:46 34.24536 -118.88443 14866 ft 304 kts 145°
2026-04-20 03:46 34.22862 -118.86902 14483 ft 301 kts 145°
2026-04-20 03:46 34.21201 -118.85372 14077 ft 299 kts 145°
2026-04-20 03:47 34.19560 -118.83862 13665 ft 296 kts 145°
2026-04-20 03:47 34.18478 -118.82870 13405 ft 294 kts 145°
2026-04-20 03:47 34.16858 -118.81381 13124 ft 291 kts 144°
2026-04-20 03:47 34.15314 -118.79809 12779 ft 288 kts 141°
2026-04-20 03:48 34.13852 -118.78214 12507 ft 280 kts 140°
2026-04-20 03:48 34.12421 -118.76631 12322 ft 279 kts 140°
2026-04-20 03:48 34.10983 -118.75055 12059 ft 279 kts 140°
2026-04-20 03:48 34.09548 -118.73490 11847 ft 278 kts 140°
2026-04-20 03:49 34.08111 -118.71928 11610 ft 277 kts 140°
2026-04-20 03:49 34.06686 -118.70378 11407 ft 275 kts 140°
2026-04-20 03:49 34.05259 -118.68832 11167 ft 276 kts 140°
2026-04-20 03:49 34.03848 -118.67261 10842 ft 277 kts 134°
2026-04-20 03:50 34.02931 -118.65224 10504 ft 281 kts 105°
2026-04-20 03:50 34.02611 -118.62907 10245 ft 282 kts 100°
2026-04-20 03:50 34.02387 -118.60559 9817 ft 283 kts 98°
2026-04-20 03:50 34.02188 -118.58210 9419 ft 277 kts 98°
2026-04-20 03:51 34.01987 -118.55917 9090 ft 275 kts 99°
2026-04-20 03:51 34.01782 -118.53659 8945 ft 261 kts 99°
2026-04-20 03:51 34.01591 -118.51568 8887 ft 244 kts 99°
2026-04-20 03:51 34.01404 -118.49556 8862 ft 240 kts 99°
2026-04-20 03:52 34.01216 -118.47576 8869 ft 236 kts 99°
2026-04-20 03:52 34.01094 -118.45596 8889 ft 240 kts 88°
2026-04-20 03:52 34.01341 -118.43590 8930 ft 244 kts 82°
2026-04-20 03:52 34.01702 -118.41556 8730 ft 250 kts 81°
2026-04-20 03:53 34.02083 -118.39513 8485 ft 248 kts 81°
2026-04-20 03:53 34.02445 -118.37508 8240 ft 246 kts 81°
2026-04-20 03:53 34.02765 -118.35499 7985 ft 242 kts 84°
2026-04-20 03:53 34.02997 -118.33494 7730 ft 240 kts 86°
2026-04-20 03:54 34.03194 -118.31505 7493 ft 238 kts 86°
2026-04-20 03:54 34.03385 -118.29529 7252 ft 237 kts 86°
2026-04-20 03:54 34.03592 -118.27566 7013 ft 235 kts 85°
2026-04-20 03:54 34.03809 -118.25619 6779 ft 234 kts 85°
2026-04-20 03:55 34.04024 -118.23683 6542 ft 232 kts 85°
2026-04-20 03:55 34.04236 -118.21758 6297 ft 231 kts 85°
2026-04-20 03:55 34.04265 -118.19837 6031 ft 235 kts 90°
2026-04-20 03:55 34.04581 -118.17776 5881 ft 262 kts 78°
2026-04-20 03:56 34.05032 -118.15596 5618 ft 273 kts 78°
2026-04-20 03:56 34.05486 -118.13348 5190 ft 276 kts 78°
2026-04-20 03:56 34.05915 -118.11094 4738 ft 275 kts 82°
2026-04-20 03:56 34.05838 -118.08818 4233 ft 272 kts 108°
2026-04-20 03:57 34.05011 -118.06827 3790 ft 260 kts 122°
2026-04-20 03:57 34.04109 -118.05040 3542 ft 245 kts 121°
2026-04-20 03:57 34.03251 -118.03336 3314 ft 231 kts 124°
2026-04-20 03:57 34.02053 -118.02095 3053 ft 228 kts 157°
2026-04-20 03:58 34.00487 -118.01900 2821 ft 230 kts 192°
2026-04-20 03:58 33.99102 -118.02820 2559 ft 230 kts 226°
2026-04-20 03:58 33.98172 -118.04306 2575 ft 222 kts 236°
2026-04-20 03:58 33.97298 -118.05867 2567 ft 226 kts 233°
2026-04-20 03:59 33.96698 -118.07497 2470 ft 206 kts 262°
2026-04-20 03:59 33.96660 -118.09149 2403 ft 187 kts 267°
2026-04-20 03:59 33.96521 -118.10675 2336 ft 180 kts 259°
2026-04-20 03:59 33.96337 -118.12114 2283 ft 166 kts 262°
2026-04-20 04:00 33.96226 -118.13425 2297 ft 150 kts 262°
2026-04-20 04:00 33.96103 -118.14675 2433 ft 150 kts 261°
2026-04-20 04:00 33.95971 -118.15947 2736 ft 157 kts 261°
2026-04-20 04:00 33.95842 -118.17280 2862 ft 161 kts 261°
2026-04-20 04:01 33.95713 -118.18590 2726 ft 156 kts 261°
2026-04-20 04:01 33.95582 -118.19870 2591 ft 152 kts 261°
2026-04-20 04:01 33.95456 -118.21131 2619 ft 161 kts 261°
2026-04-20 04:01 33.95325 -118.22481 2615 ft 164 kts 261°
2026-04-20 04:02 33.95185 -118.23855 2528 ft 169 kts 261°
2026-04-20 04:02 33.95046 -118.25248 2274 ft 166 kts 262°
2026-04-20 04:02 33.94910 -118.26606 2040 ft 162 kts 262°
2026-04-20 04:02 33.94775 -118.27945 1824 ft 160 kts 262°
2026-04-20 04:03 33.94642 -118.29272 1625 ft 159 kts 262°
2026-04-20 04:03 33.94510 -118.30590 1406 ft 154 kts 262°
2026-04-20 04:03 33.94384 -118.31827 1209 ft 144 kts 262°
2026-04-20 04:03 33.94261 -118.33023 1005 ft 143 kts 263°
2026-04-20 04:04 33.94146 -118.34190 834 ft 139 kts 262°
2026-04-20 04:04 33.94035 -118.35335 667 ft 137 kts 264°
2026-04-20 04:04 33.93913 -118.36479 512 ft 142 kts 263°
2026-04-20 04:04 33.93805 -118.37646 251 ft 137 kts 261°
2026-04-20 04:05 33.93688 -118.38768 133 ft 129 kts 261°
2026-04-20 04:05 33.93590 -118.39705 123 ft 93 kts 262°
2026-04-20 04:05 33.93534 -118.40298 122 ft 44 kts 269°
2026-04-20 04:05 33.93571 -118.40577 121 ft 26 kts 292°
2026-04-20 04:06 33.93595 -118.40734 122 ft 15 kts 265°
2026-04-20 04:06 33.93617 -118.40862 122 ft 17 kts 308°
2026-04-20 04:06 33.93729 -118.40906 122 ft 19 kts 353°
2026-04-20 04:06 33.93771 -118.40912 122 ft 3 kts 359°
2026-04-20 04:07 33.93792 -118.40877 123 ft 12 kts 81°
2026-04-20 04:07 33.93814 -118.40761 122 ft 14 kts 45°
2026-04-20 04:07 33.93889 -118.40686 122 ft 16 kts 73°
2026-04-20 04:07 33.93906 -118.40547 123 ft 18 kts 83°
2026-04-20 04:08 33.93923 -118.40386 123 ft 19 kts 82°
2026-04-20 04:08 33.93944 -118.40310 122 ft 10 kts 34°
2026-04-20 04:08 33.94021 -118.40310 121 ft 7 kts 351°
2026-04-20 04:08 33.94033 -118.40312 122 ft 4 kts 352°
2026-04-20 04:09 33.94070 -118.40318 121 ft 6 kts 352°
2026-04-20 04:09 33.94090 -118.40290 122 ft 6 kts 87°
2026-04-20 04:09 33.94087 -118.40257 123 ft 0 kts 97°